DMSP 5528

operational
NORAD ID: 5903 Int'l Des: 1972-018 Owner: SAMSO Country: US
LEOCIRCULARRETROGRADE

About DMSP 5528

Description loading...

Live Position

Loading 3D Globe...

Upcoming Passes

Altitude History

Altitude vs Time

uPlot chart will show altitude changes over time

Two-Line Element Set

1 5903U 72018A 25344.45560132 .00000378 00000-0 17830-3 0 9999
2 5903 99.1191 165.7065 0049666 276.2400 83.3122 14.25400957863329
Epoch: Dec 10, 2025 • Age: 8 hours

Current Status

Altitude 811.4 km
Velocity 7.45 km/s
Sub-Earth Point -3.88°S, 12.39°W
Type other

Large Constellations

Loading constellations...